Time,TemperatureF,DewpointF,PressureIn,WindDirection,WindDirectionDegrees,WindSpeedMPH,WindSpeedGustMPH,Humidity,HourlyPrecipIn,Conditions,Clouds,dailyrainin,SoftwareType,DateUTC
2013-06-30 00:02:00,65.0,-99.9,29.79,South,180,8.0,14.0,-999,-99.99,,,-99.99,,2013-06-30 04:02:00,
2013-06-30 00:12:00,65.0,-99.9,29.78,South,180,7.0,13.0,-999,-99.99,,,-99.99,,2013-06-30 04:12:00,
2013-06-30 00:22:00,65.0,-99.9,29.78,South,180,7.0,13.0,-999,-99.99,,,-99.99,,2013-06-30 04:22:00,
2013-06-30 00:33:00,65.0,-99.9,29.79,South,189,7.0,12.0,-999,-99.99,,,-99.99,,2013-06-30 04:33:00,
2013-06-30 00:43:00,66.0,-99.9,29.78,South,183,7.0,13.0,-999,-99.99,,,-99.99,,2013-06-30 04:43:00,
2013-06-30 00:53:00,66.0,-99.9,29.79,South,191,9.0,14.0,-999,-99.99,,,-99.99,,2013-06-30 04:53:00,
2013-06-30 01:02:00,66.0,-99.9,29.79,South,178,8.0,13.0,-999,-99.99,,,-99.99,,2013-06-30 05:02:00,
2013-06-30 01:12:00,66.0,-99.9,29.79,South,187,8.0,13.0,-999,-99.99,,,-99.99,,2013-06-30 05:12:00,
2013-06-30 01:22:00,66.0,-99.9,29.79,South,187,8.0,13.0,-999,-99.99,,,-99.99,,2013-06-30 05:22:00,
2013-06-30 01:34:00,66.0,-99.9,29.79,SSW,194,8.0,13.0,-999,-99.99,,,-99.99,,2013-06-30 05:34:00,
2013-06-30 01:53:00,67.0,-99.9,29.79,SSW,196,6.0,14.0,-999,-99.99,,,-99.99,,2013-06-30 05:53:00,
2013-06-30 02:02:00,67.0,-99.9,29.79,SSW,194,7.0,15.0,-999,-99.99,,,-99.99,,2013-06-30 06:02:00,
2013-06-30 02:34:00,66.0,-99.9,29.79,SSW,198,7.0,15.0,-999,-99.99,,,-99.99,,2013-06-30 06:34:00,
2013-06-30 02:43:00,66.0,-99.9,29.79,SSW,204,10.0,15.0,-999,-99.99,,,-99.99,,2013-06-30 06:43:00,
2013-06-30 02:53:00,66.0,-99.9,29.78,SSW,213,8.0,13.0,-999,-99.99,,,-99.99,,2013-06-30 06:53:00,
2013-06-30 03:02:00,66.0,-99.9,29.79,SSW,212,8.0,14.0,-999,-99.99,,,-99.99,,2013-06-30 07:02:00,
2013-06-30 03:12:00,66.0,-99.9,29.79,SW,221,9.0,18.0,-999,-99.99,,,-99.99,,2013-06-30 07:12:00,
2013-06-30 03:33:00,67.0,-99.9,29.79,SW,215,8.0,16.0,-999,-99.99,,,-99.99,,2013-06-30 07:33:00,
2013-06-30 03:44:00,67.0,-99.9,29.78,SW,221,9.0,17.0,-999,-99.99,,,-99.99,,2013-06-30 07:44:00,
2013-06-30 03:53:00,67.0,-99.9,29.79,SW,220,8.0,15.0,-999,-99.99,,,-99.99,,2013-06-30 07:53:00,
2013-06-30 04:02:00,66.0,-99.9,29.79,SSW,208,7.0,14.0,-999,-99.99,,,-99.99,,2013-06-30 08:02:00,
2013-06-30 04:34:00,66.0,-99.9,29.80,SSW,206,8.0,13.0,-999,-99.99,,,-99.99,,2013-06-30 08:34:00,
2013-06-30 04:42:00,66.0,-99.9,29.80,SW,214,7.0,13.0,-999,-99.99,,,-99.99,,2013-06-30 08:42:00,
2013-06-30 04:53:00,67.0,-99.9,29.80,SW,216,6.0,12.0,-999,-99.99,,,-99.99,,2013-06-30 08:53:00,
2013-06-30 05:02:00,67.0,-99.9,29.80,SSW,213,9.0,15.0,-999,-99.99,,,-99.99,,2013-06-30 09:02:00,
2013-06-30 05:12:00,67.0,-99.9,29.80,SW,214,8.0,13.0,-999,-99.99,,,-99.99,,2013-06-30 09:12:00,
2013-06-30 05:34:00,67.0,-99.9,29.82,SSW,205,7.0,12.0,-999,-99.99,,,-99.99,,2013-06-30 09:34:00,
2013-06-30 05:43:00,66.0,-99.9,29.82,SSW,200,6.0,11.0,-999,-99.99,,,-99.99,,2013-06-30 09:43:00,
2013-06-30 05:53:00,66.0,-99.9,29.83,SSW,196,8.0,13.0,-999,-99.99,,,-99.99,,2013-06-30 09:53:00,
2013-06-30 06:02:00,66.0,-99.9,29.83,South,191,8.0,13.0,-999,-99.99,,,-99.99,,2013-06-30 10:02:00,
2013-06-30 06:34:00,67.0,-99.9,29.84,SSW,207,7.0,14.0,-999,-99.99,,,-99.99,,2013-06-30 10:34:00,
2013-06-30 06:43:00,67.0,-99.9,29.84,SSW,200,8.0,12.0,-999,-99.99,,,-99.99,,2013-06-30 10:43:00,
2013-06-30 06:53:00,67.0,-99.9,29.85,SSW,205,7.0,15.0,-999,-99.99,,,-99.99,,2013-06-30 10:53:00,
2013-06-30 07:02:00,67.0,-99.9,29.85,SSW,205,7.0,12.0,-999,-99.99,,,-99.99,,2013-06-30 11:02:00,
2013-06-30 07:11:00,67.0,-99.9,29.85,SSW,212,7.0,14.0,-999,-99.99,,,-99.99,,2013-06-30 11:11:00,
2013-06-30 07:33:00,68.0,-99.9,29.86,SSW,207,13.0,19.0,-999,-99.99,,,-99.99,,2013-06-30 11:33:00,
2013-06-30 07:43:00,68.0,-99.9,29.86,SSW,202,10.0,14.0,-999,-99.99,,,-99.99,,2013-06-30 11:43:00,
2013-06-30 07:53:00,68.0,-99.9,29.86,SSW,200,9.0,17.0,-999,-99.99,,,-99.99,,2013-06-30 11:53:00,
2013-06-30 08:02:00,68.0,-99.9,29.87,SSW,207,8.0,16.0,-999,-99.99,,,-99.99,,2013-06-30 12:02:00,
2013-06-30 08:12:00,68.0,-99.9,29.87,SSW,196,8.0,13.0,-999,-99.99,,,-99.99,,2013-06-30 12:12:00,
2013-06-30 08:33:00,67.0,-99.9,29.88,SSW,209,9.0,16.0,-999,-99.99,,,-99.99,,2013-06-30 12:33:00,
2013-06-30 08:43:00,67.0,-99.9,29.88,SSW,202,7.0,18.0,-999,-99.99,,,-99.99,,2013-06-30 12:43:00,
2013-06-30 08:52:00,67.0,-99.9,29.88,SSW,207,8.0,16.0,-999,-99.99,,,-99.99,,2013-06-30 12:52:00,
2013-06-30 09:02:00,67.0,-99.9,29.88,SSW,205,9.0,17.0,-999,-99.99,,,-99.99,,2013-06-30 13:02:00,
2013-06-30 09:34:00,67.0,-99.9,29.88,SSW,212,9.0,15.0,-999,-99.99,,,-99.99,,2013-06-30 13:34:00,
2013-06-30 09:44:00,67.0,-99.9,29.88,SSW,206,9.0,14.0,-999,-99.99,,,-99.99,,2013-06-30 13:44:00,
2013-06-30 09:53:00,68.0,-99.9,29.88,SSW,213,12.0,14.0,-999,-99.99,,,-99.99,,2013-06-30 13:53:00,
2013-06-30 10:02:00,68.0,-99.9,29.89,SW,215,6.0,15.0,-999,-99.99,,,-99.99,,2013-06-30 14:02:00,
2013-06-30 10:33:00,68.0,-99.9,29.89,SSW,213,9.0,14.0,-999,-99.99,,,-99.99,,2013-06-30 14:33:00,
2013-06-30 10:44:00,68.0,-99.9,29.89,SW,217,5.0,15.0,-999,-99.99,,,-99.99,,2013-06-30 14:44:00,
2013-06-30 10:52:00,67.0,-99.9,29.90,SW,214,6.0,10.0,-999,-99.99,,,-99.99,,2013-06-30 14:52:00,
2013-06-30 11:02:00,67.0,-99.9,29.90,SSW,204,6.0,14.0,-999,-99.99,,,-99.99,,2013-06-30 15:02:00,
2013-06-30 11:12:00,67.0,-99.9,29.90,SSW,209,9.0,14.0,-999,-99.99,,,-99.99,,2013-06-30 15:12:00,
2013-06-30 11:35:00,67.0,-99.9,29.91,SSW,202,7.0,15.0,-999,-99.99,,,-99.99,,2013-06-30 15:35:00,
2013-06-30 11:44:00,67.0,-99.9,29.91,SSW,202,7.0,15.0,-999,-99.99,,,-99.99,,2013-06-30 15:44:00,
2013-06-30 11:53:00,67.0,-99.9,29.91,SSW,205,7.0,15.0,-999,-99.99,,,-99.99,,2013-06-30 15:53:00,
2013-06-30 12:01:00,67.0,-99.9,29.91,SSW,205,7.0,15.0,-999,-99.99,,,-99.99,,2013-06-30 16:01:00,
2013-06-30 12:11:00,67.0,-99.9,29.91,SSW,205,7.0,15.0,-999,-99.99,,,-99.99,,2013-06-30 16:11:00,
2013-06-30 12:44:00,69.0,-99.9,29.91,SSW,212,6.0,15.0,-999,-99.99,,,-99.99,,2013-06-30 16:44:00,
2013-06-30 12:53:00,69.0,-99.9,29.90,SSW,210,8.0,17.0,-999,-99.99,,,-99.99,,2013-06-30 16:53:00,
2013-06-30 13:02:00,70.0,-99.9,29.90,SW,216,11.0,15.0,-999,-99.99,,,-99.99,,2013-06-30 17:02:00,
2013-06-30 13:34:00,71.0,-99.9,29.90,SW,222,8.0,15.0,-999,-99.99,,,-99.99,,2013-06-30 17:34:00,
2013-06-30 13:43:00,71.0,-99.9,29.89,SW,219,9.0,15.0,-999,-99.99,,,-99.99,,2013-06-30 17:43:00,
2013-06-30 13:53:00,70.0,-99.9,29.90,SW,221,7.0,15.0,-999,-99.99,,,-99.99,,2013-06-30 17:53:00,
2013-06-30 14:02:00,69.0,-99.9,29.91,SSW,211,7.0,16.0,-999,-99.99,,,-99.99,,2013-06-30 18:02:00,
2013-06-30 14:12:00,69.0,-99.9,29.91,SW,216,8.0,15.0,-999,-99.99,,,-99.99,,2013-06-30 18:12:00,
2013-06-30 14:34:00,71.0,-99.9,29.92,SW,229,6.0,17.0,-999,-99.99,,,-99.99,,2013-06-30 18:34:00,
2013-06-30 14:43:00,71.0,-99.9,29.92,SW,220,7.0,13.0,-999,-99.99,,,-99.99,,2013-06-30 18:43:00,
2013-06-30 14:53:00,70.0,-99.9,29.92,South,182,9.0,15.0,-999,-99.99,,,-99.99,,2013-06-30 18:53:00,
2013-06-30 15:01:00,71.0,-99.9,29.92,South,180,8.0,11.0,-999,-99.99,,,-99.99,,2013-06-30 19:01:00,
2013-06-30 15:12:00,70.0,-99.9,29.93,South,181,9.0,16.0,-999,-99.99,,,-99.99,,2013-06-30 19:12:00,
2013-06-30 15:33:00,70.0,-99.9,29.94,SSW,204,7.0,15.0,-999,-99.99,,,-99.99,,2013-06-30 19:33:00,
2013-06-30 15:43:00,70.0,-99.9,29.94,SSW,200,8.0,14.0,-999,-99.99,,,-99.99,,2013-06-30 19:43:00,
2013-06-30 15:53:00,70.0,-99.9,29.94,SW,221,8.0,11.0,-999,-99.99,,,-99.99,,2013-06-30 19:53:00,
2013-06-30 16:02:00,70.0,-99.9,29.93,SSW,192,8.0,15.0,-999,-99.99,,,-99.99,,2013-06-30 20:02:00,
2013-06-30 16:12:00,69.0,-99.9,29.94,SSW,209,6.0,13.0,-999,-99.99,,,-99.99,,2013-06-30 20:12:00,
2013-06-30 16:34:00,69.0,-99.9,29.94,South,190,6.0,11.0,-999,-99.99,,,-99.99,,2013-06-30 20:34:00,
2013-06-30 16:42:00,68.0,-99.9,29.94,South,190,7.0,11.0,-999,-99.99,,,-99.99,,2013-06-30 20:42:00,
2013-06-30 16:52:00,68.0,-99.9,29.93,South,182,8.0,11.0,-999,-99.99,,,-99.99,,2013-06-30 20:52:00,
2013-06-30 17:01:00,67.0,-99.9,29.93,South,175,6.0,11.0,-999,-99.99,,,-99.99,,2013-06-30 21:01:00,
2013-06-30 17:34:00,67.0,-99.9,29.94,South,175,7.0,12.0,-999,-99.99,,,-99.99,,2013-06-30 21:34:00,
2013-06-30 17:43:00,67.0,-99.9,29.94,South,181,6.0,9.0,-999,-99.99,,,-99.99,,2013-06-30 21:43:00,
2013-06-30 17:53:00,68.0,-99.9,29.95,SSW,197,6.0,9.0,-999,-99.99,,,-99.99,,2013-06-30 21:53:00,
2013-06-30 18:01:00,68.0,-99.9,29.95,SSW,192,5.0,9.0,-999,-99.99,,,-99.99,,2013-06-30 22:01:00,
2013-06-30 18:34:00,68.0,-99.9,29.95,South,188,6.0,9.0,-999,-99.99,,,-99.99,,2013-06-30 22:34:00,
2013-06-30 18:43:00,69.0,-99.9,29.96,SSW,194,5.0,9.0,-999,-99.99,,,-99.99,,2013-06-30 22:43:00,
2013-06-30 18:53:00,68.0,-99.9,29.96,South,188,6.0,11.0,-999,-99.99,,,-99.99,,2013-06-30 22:53:00,
2013-06-30 19:02:00,68.0,-99.9,29.96,SSW,197,5.0,12.0,-999,-99.99,,,-99.99,,2013-06-30 23:02:00,
2013-06-30 19:11:00,68.0,-99.9,29.96,SSW,199,7.0,14.0,-999,-99.99,,,-99.99,,2013-06-30 23:11:00,
2013-06-30 19:33:00,67.0,-99.9,29.96,South,188,6.0,12.0,-999,-99.99,,,-99.99,,2013-06-30 23:33:00,
2013-06-30 19:44:00,68.0,-99.9,29.96,South,191,6.0,11.0,-999,-99.99,,,-99.99,,2013-06-30 23:44:00,
2013-06-30 19:53:00,68.0,-99.9,29.97,SSW,202,7.0,12.0,-999,-99.99,,,-99.99,,2013-06-30 23:53:00,
2013-06-30 20:01:00,67.0,-99.9,29.96,SSW,202,8.0,14.0,-999,-99.99,,,-99.99,,2013-07-01 00:01:00,
2013-06-30 20:11:00,67.0,-99.9,29.97,SSW,200,9.0,12.0,-999,-99.99,,,-99.99,,2013-07-01 00:11:00,
2013-06-30 20:33:00,67.0,-99.9,29.97,SSW,199,8.0,13.0,-999,-99.99,,,-99.99,,2013-07-01 00:33:00,
2013-06-30 20:43:00,67.0,-99.9,29.97,SSW,202,8.0,15.0,-999,-99.99,,,-99.99,,2013-07-01 00:43:00,
2013-06-30 20:52:00,67.0,-99.9,29.97,SSW,206,9.0,15.0,-999,-99.99,,,-99.99,,2013-07-01 00:52:00,
2013-06-30 21:01:00,67.0,-99.9,29.97,SSW,192,6.0,14.0,-999,-99.99,,,-99.99,,2013-07-01 01:01:00,
2013-06-30 21:12:00,67.0,-99.9,29.97,SSW,199,8.0,15.0,-999,-99.99,,,-99.99,,2013-07-01 01:12:00,
2013-06-30 21:34:00,67.0,-99.9,29.97,SSW,195,7.0,13.0,-999,-99.99,,,-99.99,,2013-07-01 01:34:00,
2013-06-30 21:43:00,66.0,-99.9,29.97,South,188,7.0,14.0,-999,-99.99,,,-99.99,,2013-07-01 01:43:00,
2013-06-30 21:52:00,66.0,-99.9,29.98,SSW,201,8.0,14.0,-999,-99.99,,,-99.99,,2013-07-01 01:52:00,
2013-06-30 22:02:00,66.0,-99.9,29.98,SSW,196,6.0,10.0,-999,-99.99,,,-99.99,,2013-07-01 02:02:00,
2013-06-30 22:12:00,67.0,-99.9,29.98,South,190,8.0,11.0,-999,-99.99,,,-99.99,,2013-07-01 02:12:00,
2013-06-30 22:33:00,66.0,-99.9,29.99,South,187,8.0,13.0,-999,-99.99,,,-99.99,,2013-07-01 02:33:00,
2013-06-30 22:44:00,66.0,-99.9,29.99,South,190,7.0,12.0,-999,-99.99,,,-99.99,,2013-07-01 02:44:00,
2013-06-30 22:54:00,66.0,-99.9,29.99,South,186,8.0,12.0,-999,-99.99,,,-99.99,,2013-07-01 02:54:00,
2013-06-30 23:02:00,66.0,-99.9,29.99,South,180,8.0,11.0,-999,-99.99,,,-99.99,,2013-07-01 03:02:00,
2013-06-30 23:23:00,66.0,-99.9,30.00,South,188,5.0,12.0,-999,-99.99,,,-99.99,,2013-07-01 03:23:00,
2013-06-30 23:53:00,66.0,-99.9,30.00,South,188,8.0,12.0,-999,-99.99,,,-99.99,,2013-07-01 03:53:00,